TimeMDT,TemperatureF,Dew PointF,Humidity,Sea Level PressureIn,VisibilityMPH,Wind Direction,Wind SpeedMPH,Gust SpeedMPH,PrecipitationIn,Events,Conditions,WindDirDegrees,DateUTC
12:53 AM,55.0,37.0,51,30.14,10.0,WNW,5.8,-,N/A,,Clear,300,2013-06-28 06:53:00
1:53 AM,54.0,37.0,53,30.14,10.0,NNW,8.1,-,N/A,,Clear,330,2013-06-28 07:53:00
2:53 AM,51.1,35.1,54,30.14,10.0,North,5.8,-,N/A,,Clear,350,2013-06-28 08:53:00
3:53 AM,54.0,36.0,51,30.13,10.0,NE,3.5,-,N/A,,Clear,40,2013-06-28 09:53:00
4:53 AM,50.0,35.1,57,30.14,10.0,ESE,3.5,-,N/A,,Clear,120,2013-06-28 10:53:00
5:53 AM,50.0,37.0,61,30.16,10.0,East,3.5,-,N/A,,Clear,100,2013-06-28 11:53:00
6:53 AM,55.9,37.9,51,30.14,10.0,Calm,Calm,-,N/A,,Clear,0,2013-06-28 12:53:00
7:53 AM,61.0,39.0,44,30.14,10.0,Calm,Calm,-,N/A,,Clear,0,2013-06-28 13:53:00
8:53 AM,68.0,37.9,33,30.15,10.0,ESE,3.5,-,N/A,,Clear,120,2013-06-28 14:53:00
9:53 AM,75.0,39.0,27,30.14,10.0,SSW,3.5,-,N/A,,Clear,200,2013-06-28 15:53:00
10:53 AM,82.0,37.9,21,30.13,10.0,SSW,6.9,-,N/A,,Clear,210,2013-06-28 16:53:00
11:53 AM,84.0,36.0,18,30.12,10.0,Variable,4.6,-,N/A,,Clear,0,2013-06-28 17:53:00
12:53 PM,89.1,35.1,15,30.10,10.0,Variable,3.5,-,N/A,,Clear,0,2013-06-28 18:53:00
1:53 PM,91.0,33.1,13,30.08,10.0,West,12.7,-,N/A,,Clear,260,2013-06-28 19:53:00
2:53 PM,90.0,25.0,10,30.07,10.0,West,10.4,25.3,N/A,,Clear,280,2013-06-28 20:53:00
3:53 PM,91.9,26.1,9,30.04,10.0,North,10.4,23.0,N/A,,Clear,350,2013-06-28 21:53:00
4:53 PM,91.0,25.0,9,30.04,10.0,North,9.2,21.9,N/A,,Clear,360,2013-06-28 22:53:00
5:53 PM,90.0,24.1,9,30.04,10.0,NNW,12.7,18.4,N/A,,Clear,330,2013-06-28 23:53:00
6:53 PM,88.0,25.0,10,30.03,10.0,NNW,15.0,-,N/A,,Clear,330,2013-06-29 00:53:00
7:53 PM,86.0,25.0,11,30.01,10.0,North,13.8,-,N/A,,Clear,360,2013-06-29 01:53:00
8:53 PM,77.0,27.0,16,30.02,10.0,North,10.4,-,N/A,,Clear,360,2013-06-29 02:53:00
9:53 PM,66.0,34.0,30,30.05,10.0,NNW,10.4,-,N/A,,Clear,330,2013-06-29 03:53:00
10:53 PM,64.9,30.9,28,30.04,10.0,NNW,12.7,-,N/A,,Clear,340,2013-06-29 04:53:00
11:53 PM,62.1,30.0,30,30.05,10.0,East,6.9,-,N/A,,Clear,90,2013-06-29 05:53:00